SCP
0 0 0 0 0 0 0 0 0 0 0 0 0 0 0 0 0 0 0 0 0 0 0 0 0 0 0 0 0 0 0 0 0 0 0 0 0 0 0 0 0 0 0
0 0 0 0 0 0 0 0 0 0 0 0 0 0 0 0 0 0 0 0 0 0 0 0 0 0 0 0 0 0 0 0 0 0 0 0 0 0 0 0 0 0 0
0 0 0 0 0 0 0 0 0 0 0 0 0 0 0 0 0 0 0 0 0 0 0 0 0 0 0 0 0 0 0 0 0 0 0 0 0 0 0 0 0 0 0
0 0 0 0 0 0 0 0 0 0 0 0 0 0 0 0 0 0 0 0 0 0 0 0 0 0 0 0 0 0 0 0 0 0 0 0 0 0 0 0 0 0 0
0 0 0 0 0 0 0 0 0 0 0 0 0 0 0 0 0 0 0 0 0 0 0 0 0 0 0 0 0 0 0 0 0 0 0 0 0 0 0 0 0 0 0
0 0 0 0 0 0 0 0 0 0 0 0 0 0 0 0 0 0 0 0 0 0 0 0 0 0 0 0 0 0 0 0 0 0 0 0 0 0 0 0 0 0 0
0 0 0 0 0 0 0 0 0 0 0 0 0 0 0 0 0 0 0 0 0 0 0 0 0 0 0 0 0 0 0 0 0 0 0 0 0 0 0 0 0 0 0
0 0 0 0 0 0 0 0 0 0 0 0 0 0 0 0 0 0 0 0 0 0 0 0 0 0 0 0 0 0 0 0 0 0 0 0 0 0 0 0 0 0 0
0 0 0 0 0 0 0 0 0 0 0 0 0 0 0 0 0 0 0 0 0 0 0 0 0 0 0 0 0 0 0 0 0 0 0 0 0 0 0 0 0 0 0
0 0 0 0 0 0 0 0 0 0 0 0 0 0 0 0 0 0 0 0 0 0 0 0 0 0 0 0 0 0 0 0 0 0 0 0 0 0 0 0 0 0 0
0 0 0 0 0 0 0 0 0 0 0 0 0 0 0 0 0 0 0 0 0 0 0 0 0 0 0 0 0 0 0 0 0 0 0 0 0 0 0 0 0 0 0
0 0 0 0 0 0 0 0 0 0 0 0 0 0 0 0 0 0 0 0 0 0 0 0 0 0 0 0 0 0 0 0 0 0 0 0 0 0 0 0 0 0 0
0 0 0 0 0 0 0 0 0 0 0 0 0 0 0 0 0 0 0 0 0 0 0 0 0 0 0 0 0 0 0 0 0 0 0 0 0 0 0 0 0 0 0
0 0 0 0 0 0 0 0 0 0 0 0 0 0 0 0 0 0 0 0 0 0 0 0 0 0 0 0 0 0 0 0 0 0 0 0 0 0 0 0 0 0 0
0 0 0 0 0 0 0 0 0 0 0 0 0 0 0 0 0 0 0 0 0 0 0 0 0 0 0 0 0 0 0 0 0 0 0 0 0 0 0 0 0 0 0
0 0 0 0 0 0 0 0 0 0 0 0 0 0 0 0 0 0 0 0 0 0 0 0 0 0 0 0 0 0 0 0 0 0 0 0 0 0 0 0 0 0 0
0 0 0 0 0 0 0 0 0 0 0 0 0 0 0 0 0 0 0 0 0 0 0 0 0 0 0 0 0 0 0 0 0 0 0 0 0 0 0 0 0 0 0
0 0 0 0 0 0 0 0 0 0 0 0 0 0 0 0 0 0 0 0 0 0 0 0 0 0 0 0 0 0 0 0 0 0 0 0 0 0 0 0 0 0 0
0 0 0 0 0 0 0 0 0 0 0 0 0 0 0 0 0 0 0 0 0 0 0 0 0 0 0 0 0 0 0 0 0 0 0 0 0 0 0 0 0 0 0
0 0 0 0 0 0 0 0 0 0 0 0 0 0 0 0 0 0 0 0 0 0 0 0 0 0 0 0 0 0 0 0 0 0 0 0 0 0 0 0 0 0 0
0 0 0 0 0 0 0 0 0 0 0 0 0 0 0 0 0 0 0 0 0 0 0 0 0 0 0 0 0 0 0 0 0 0 0 0 0 0 0 0 0 0 0
0 0 0 0 0 0 0 0 0 0 0 0 0 0 0 0 0 0 0 0 0 0 0 0 0 0 0 0 0 0 0 0 0 0 0 0 0 0 0 0 0 0 0
0 0 0 0 0 0 0 0 0 0 0 0 0 0 0 0 0 0 0 0 0 0 0 0 0 0 0 0 0 0 0 0 0 0 0 0 0 0 0 0 0 0 -0
0 0 0 0 0 0 0 0 0 0 0 0 0 0 0 0 0 0 0 0 0 0 0 0 0 0 0 0 0 0 0 0 0 0 0 0 0 0 0 0 -0 -0 -0
0 0 0 0 0 0 0 0 0 0 0 0 0 0 0 0 0 0 0 0 0 0 0 0 0 0 0 0 0 0 0 0 0 0 0 0 0 -0 -0 -0 -0 -0 -0
0 0 0 0 0 0 0 0 0 0 0 0 0 0 0 0 0 0 0 0 0 0 0 0 0 0 0 0 0 0 0 0 0 0 0 0 0 -0 -0 -0 -0 -0 -0
Wind_Speed_500mb
90 88 87 87 83 74 69 65 62 59 56 53 51 50 48 46 43 40 37 34 30 27 24 22 21 20 20 20 22 24 25 29 35 41 44 46 53 59 62 64 65 65 68
86 88 89 87 83 77 72 66 62 59 57 54 52 51 49 46 44 41 37 34 30 28 25 23 23 22 22 23 25 28 31 34 41 49 53 55 59 61 66 68 69 71 74
83 87 88 88 86 81 74 67 63 60 57 54 52 52 50 47 44 41 37 33 31 29 26 25 25 24 25 27 30 33 36 39 44 52 59 60 63 63 69 72 73 77 79
80 83 87 88 88 84 75 69 65 61 57 54 51 50 48 45 42 40 37 34 31 28 26 27 27 27 28 31 33 36 39 43 46 51 57 60 62 66 70 78 82 78 83
78 81 84 86 87 83 76 71 66 62 57 52 52 51 48 45 42 40 37 34 31 29 29 29 29 30 32 33 34 37 39 42 45 50 54 59 66 72 70 71 82 95 100
74 79 81 83 83 81 78 74 69 63 58 56 54 51 49 45 43 40 37 35 33 33 32 32 31 31 31 32 34 37 39 40 44 47 52 57 62 61 71 83 86 86 94
70 74 79 79 80 79 77 75 71 65 61 58 54 51 47 45 42 40 38 37 34 32 29 30 29 29 30 31 33 36 38 39 40 41 49 52 60 67 69 72 81 94 105
66 70 73 75 76 76 75 74 69 65 62 59 56 51 47 45 44 45 40 34 31 28 27 27 26 26 27 30 35 38 42 45 47 49 54 60 58 55 63 79 91 103 110
64 64 68 70 74 74 75 73 69 66 63 60 55 52 50 47 44 40 33 30 27 25 23 22 22 22 25 31 39 44 50 54 54 60 64 63 70 74 78 91 93 87 101
62 60 62 66 71 72 70 68 66 64 62 59 56 50 47 41 33 31 28 26 23 20 18 18 21 26 33 38 37 44 55 61 67 70 73 76 76 81 81 70 71 73 77
59 57 60 64 66 67 67 64 63 61 60 60 58 53 44 33 21 22 23 19 17 15 17 22 27 32 33 28 30 47 52 55 68 75 76 82 84 75 71 65 61 62 73
54 57 60 62 65 66 65 65 61 62 62 61 57 51 42 35 24 20 19 17 15 18 23 28 31 29 28 31 40 43 44 58 69 78 79 78 77 75 72 68 66 67 65
51 56 59 63 64 63 63 64 64 62 61 59 53 48 42 31 21 17 14 14 16 22 27 30 34 39 48 57 59 58 64 67 70 72 73 73 71 70 69 70 68 68 72
55 59 61 63 64 63 62 62 64 63 60 56 51 44 35 26 17 12 11 15 21 29 37 43 48 52 56 59 59 57 58 59 60 62 65 65 63 64 64 64 70 73 80
56 58 60 62 63 63 59 58 58 53 47 49 43 34 28 21 10 6 14 21 22 38 42 47 51 53 54 54 55 55 55 55 56 55 56 58 60 62 63 64 68 74 78
59 60 62 64 65 66 67 62 49 49 43 37 32 22 19 10 10 17 17 24 31 43 43 47 48 49 51 53 55 55 53 51 50 51 51 53 57 60 64 66 67 71 78
63 69 73 75 78 79 74 67 63 48 41 32 23 14 5 8 13 11 24 33 36 40 41 42 45 47 49 49 49 48 49 47 47 47 50 51 54 57 61 66 68 72 79
65 70 71 70 64 60 55 51 44 36 28 17 6 1 6 11 17 24 29 28 29 35 39 41 42 43 43 43 43 44 44 43 43 46 47 49 51 57 62 64 68 76 83
65 67 65 64 59 53 45 38 29 19 12 6 2 6 10 15 19 24 29 31 34 36 36 36 37 37 37 37 37 39 41 42 43 45 45 48 51 54 57 64 72 78 85
67 64 60 55 48 40 31 22 18 12 6 2 4 8 10 12 16 21 27 30 31 32 32 32 32 32 34 35 35 37 38 39 41 42 45 47 47 51 60 69 77 86 91
63 56 46 39 32 25 20 15 10 6 2 1 4 7 14 15 18 20 23 26 28 28 29 31 32 31 31 32 34 37 38 38 38 41 43 43 46 53 63 73 82 90 96
48 41 34 25 21 17 13 9 6 4 3 4 5 7 10 13 16 19 22 23 24 26 28 29 30 31 33 35 36 38 38 38 39 41 40 40 47 57 66 75 83 91 97
33 27 23 19 15 12 8 6 5 5 4 2 3 6 9 12 16 19 20 21 21 22 25 29 31 31 31 32 34 37 40 39 39 38 40 45 51 61 69 76 86 96 101
23 20 16 14 11 8 6 6 5 3 2 2 5 9 12 14 15 16 18 21 22 24 27 29 32 34 34 33 34 34 35 33 33 35 43 51 57 66 70 75 88 97 103
18 16 13 11 9 8 7 6 3 2 4 5 8 10 12 13 15 19 22 24 24 25 25 27 31 34 34 34 33 31 28 29 35 42 48 51 56 67 71 76 88 99 102
16 13 11 10 9 8 5 3 2 4 6 8 10 13 15 17 20 22 24 25 26 26 27 28 30 33 34 32 27 25 29 34 40 43 49 53 62 73 75 85 90 92 97
Wind_Direction_500mb
226 222 218 215 216 215 216 214 211 208 207 207 207 206 206 206 205 207 208 212 214 217 220 226 233 243 253 262 270 277 282 285 284 285 286 288 293 296 297 297 300 301 301
229 224 220 217 217 216 216 214 211 209 208 208 206 206 207 207 208 210 213 214 217 220 225 231 239 249 260 268 275 280 283 285 288 292 294 297 298 298 300 300 300 300 302
228 225 221 218 217 217 216 213 211 210 209 205 206 208 208 209 210 210 214 217 220 225 231 238 248 256 264 273 278 281 284 285 287 291 296 299 299 302 303 303 303 305 305
228 225 222 220 218 218 216 213 213 212 211 209 208 208 209 210 211 213 216 220 223 228 237 245 253 262 269 273 277 281 284 288 290 292 295 299 303 307 307 309 309 309 308
229 225 223 221 218 217 215 213 213 212 211 211 208 206 207 209 213 215 217 221 227 233 240 248 257 265 270 275 281 285 288 292 295 298 302 305 308 310 313 312 308 307 309
231 227 222 220 219 217 214 213 212 210 209 209 208 209 208 209 211 214 219 224 230 237 245 256 262 266 272 279 282 285 290 296 300 301 304 306 310 308 308 308 310 311 309
230 226 223 220 217 215 213 211 210 209 209 208 206 206 207 209 211 215 220 226 233 242 248 253 260 268 276 283 286 289 293 295 300 301 300 303 303 306 312 307 302 301 300
228 226 222 219 216 212 209 208 207 207 207 205 203 203 203 203 209 218 225 228 234 237 243 250 260 271 279 286 290 296 300 301 302 306 305 305 306 301 297 296 299 301 301
224 223 220 216 212 207 205 204 204 202 199 198 197 196 199 202 213 220 221 222 226 230 239 252 267 280 291 296 299 306 306 304 307 302 299 299 300 301 302 301 303 304 305
217 217 215 212 210 205 203 199 196 197 193 189 187 190 194 199 209 215 207 210 216 227 241 258 279 293 298 300 320 312 302 309 308 304 299 296 296 298 300 301 303 304 306
211 210 207 206 206 205 199 196 194 189 186 181 181 180 184 186 177 187 187 197 213 232 257 280 297 298 308 321 308 291 302 304 293 293 296 298 302 305 308 309 307 307 307
199 200 198 198 198 196 196 187 186 184 180 176 177 174 174 174 168 149 172 209 246 275 293 304 304 314 311 305 286 304 310 288 293 298 301 306 311 313 314 313 312 309 305
188 187 188 186 186 186 188 183 178 178 177 173 175 173 172 174 179 195 223 253 281 304 302 302 302 305 306 309 305 304 301 305 306 308 310 312 314 315 314 314 313 313 313
178 174 174 175 172 173 175 174 174 172 172 171 170 169 168 171 185 212 257 294 305 305 299 304 309 309 307 304 303 305 309 312 313 313 313 315 317 317 318 320 323 325 322
173 168 166 167 166 162 162 163 165 163 170 166 162 163 165 167 188 259 307 314 325 299 304 308 307 308 310 313 316 318 319 318 318 319 321 322 321 322 324 327 328 326 324
164 160 158 155 152 149 146 136 138 147 152 157 156 163 166 197 276 296 316 298 302 308 314 315 318 320 322 324 324 324 326 327 327 327 325 324 325 327 329 328 330 330 329
162 157 155 154 151 150 149 147 139 136 148 150 157 174 206 290 299 332 299 321 315 318 321 324 325 325 325 326 326 327 327 328 327 327 326 328 329 328 329 332 333 332 331
162 159 156 152 149 148 148 146 145 148 153 151 153 229 304 309 299 308 315 325 324 324 329 329 329 328 328 327 326 325 325 327 328 327 329 330 330 330 331 333 334 333 334
150 147 147 146 146 146 146 144 143 134 132 150 250 312 316 312 322 325 331 334 336 335 334 335 335 333 331 328 325 324 326 329 330 331 332 331 333 331 334 335 335 337 336
148 148 148 146 144 144 137 129 137 146 152 195 306 323 331 330 332 335 339 339 341 342 341 340 340 340 336 332 330 328 328 331 335 333 330 331 333 335 336 336 337 336 337
147 144 145 141 132 130 140 146 145 141 118 355 338 357 352 351 345 344 346 349 348 346 346 346 345 344 338 336 333 333 334 336 332 329 329 332 335 337 338 338 339 339 338
144 139 131 132 141 144 144 139 129 112 84 51 22 353 343 341 346 351 353 351 350 349 347 347 348 347 344 341 336 334 332 332 330 328 328 332 336 339 339 339 340 339 339
127 128 139 142 138 133 125 115 102 90 81 47 344 336 341 349 352 349 346 348 349 347 345 346 346 343 338 333 328 325 327 329 327 327 328 331 334 337 336 336 337 338 338
137 139 137 133 128 123 117 116 119 125 125 30 354 352 351 346 339 335 341 345 344 343 340 337 334 331 329 325 323 323 325 327 326 327 326 328 331 333 330 330 334 336 336
135 132 129 125 123 124 126 125 114 66 23 8 352 341 331 324 328 338 336 331 329 330 330 327 322 320 321 323 323 326 329 329 326 325 321 319 325 332 333 330 332 334 334
129 126 123 119 117 117 117 110 50 8 354 342 328 318 318 327 330 325 319 321 324 324 323 320 318 319 322 323 325 328 327 324 322 322 324 324 326 330 331 329 330 331 331
Wind_Speed_850mb
90 88 87 87 83 74 69 65 62 59 56 53 51 50 48 46 43 40 37 34 30 27 24 22 21 20 20 20 22 24 25 29 35 41 44 46 53 59 62 64 65 65 68
86 88 89 87 83 77 72 66 62 59 57 54 52 51 49 46 44 41 37 34 30 28 25 23 23 22 22 23 25 28 31 34 41 49 53 55 59 61 66 68 69 71 74
83 87 88 88 86 81 74 67 63 60 57 54 52 52 50 47 44 41 37 33 31 29 26 25 25 24 25 27 30 33 36 39 44 52 59 60 63 63 69 72 73 77 79
80 83 87 88 88 84 75 69 65 61 57 54 51 50 48 45 42 40 37 34 31 28 26 27 27 27 28 31 33 36 39 43 46 51 57 60 62 66 70 78 82 78 83
78 81 84 86 87 83 76 71 66 62 57 52 52 51 48 45 42 40 37 34 31 29 29 29 29 30 32 33 34 37 39 42 45 50 54 59 66 72 70 71 82 95 100
74 79 81 83 83 81 78 74 69 63 58 56 54 51 49 45 43 40 37 35 33 33 32 32 31 31 31 32 34 37 39 40 44 47 52 57 62 61 71 83 86 86 94
70 74 79 79 80 79 77 75 71 65 61 58 54 51 47 45 42 40 38 37 34 32 29 30 29 29 30 31 33 36 38 39 40 41 49 52 60 67 69 72 81 94 105
66 70 73 75 76 76 75 74 69 65 62 59 56 51 47 45 44 45 40 34 31 28 27 27 26 26 27 30 35 38 42 45 47 49 54 60 58 55 63 79 91 103 110
64 64 68 70 74 74 75 73 69 66 63 60 55 52 50 47 44 40 33 30 27 25 23 22 22 22 25 31 39 44 50 54 54 60 64 63 70 74 78 91 93 87 101
62 60 62 66 71 72 70 68 66 64 62 59 56 50 47 41 33 31 28 26 23 20 18 18 21 26 33 38 37 44 55 61 67 70 73 76 76 81 81 70 71 73 77
59 57 60 64 66 67 67 64 63 61 60 60 58 53 44 33 21 22 23 19 17 15 17 22 27 32 33 28 30 47 52 55 68 75 76 82 84 75 71 65 61 62 73
54 57 60 62 65 66 65 65 61 62 62 61 57 51 42 35 24 20 19 17 15 18 23 28 31 29 28 31 40 43 44 58 69 78 79 78 77 75 72 68 66 67 65
51 56 59 63 64 63 63 64 64 62 61 59 53 48 42 31 21 17 14 14 16 22 27 30 34 39 48 57 59 58 64 67 70 72 73 73 71 70 69 70 68 68 72
55 59 61 63 64 63 62 62 64 63 60 56 51 44 35 26 17 12 11 15 21 29 37 43 48 52 56 59 59 57 58 59 60 62 65 65 63 64 64 64 70 73 80
56 58 60 62 63 63 59 58 58 53 47 49 43 34 28 21 10 6 14 21 22 38 42 47 51 53 54 54 55 55 55 55 56 55 56 58 60 62 63 64 68 74 78
59 60 62 64 65 66 67 62 49 49 43 37 32 22 19 10 10 17 17 24 31 43 43 47 48 49 51 53 55 55 53 51 50 51 51 53 57 60 64 66 67 71 78
63 69 73 75 78 79 74 67 63 48 41 32 23 14 5 8 13 11 24 33 36 40 41 42 45 47 49 49 49 48 49 47 47 47 50 51 54 57 61 66 68 72 79
65 70 71 70 64 60 55 51 44 36 28 17 6 1 6 11 17 24 29 28 29 35 39 41 42 43 43 43 43 44 44 43 43 46 47 49 51 57 62 64 68 76 83
65 67 65 64 59 53 45 38 29 19 12 6 2 6 10 15 19 24 29 31 34 36 36 36 37 37 37 37 37 39 41 42 43 45 45 48 51 54 57 64 72 78 85
67 64 60 55 48 40 31 22 18 12 6 2 4 8 10 12 16 21 27 30 31 32 32 32 32 32 34 35 35 37 38 39 41 42 45 47 47 51 60 69 77 86 91
63 56 46 39 32 25 20 15 10 6 2 1 4 7 14 15 18 20 23 26 28 28 29 31 32 31 31 32 34 37 38 38 38 41 43 43 46 53 63 73 82 90 96
48 41 34 25 21 17 13 9 6 4 3 4 5 7 10 13 16 19 22 23 24 26 28 29 30 31 33 35 36 38 38 38 39 41 40 40 47 57 66 75 83 91 97
33 27 23 19 15 12 8 6 5 5 4 2 3 6 9 12 16 19 20 21 21 22 25 29 31 31 31 32 34 37 40 39 39 38 40 45 51 61 69 76 86 96 101
23 20 16 14 11 8 6 6 5 3 2 2 5 9 12 14 15 16 18 21 22 24 27 29 32 34 34 33 34 34 35 33 33 35 43 51 57 66 70 75 88 97 103
18 16 13 11 9 8 7 6 3 2 4 5 8 10 12 13 15 19 22 24 24 25 25 27 31 34 34 34 33 31 28 29 35 42 48 51 56 67 71 76 88 99 102
16 13 11 10 9 8 5 3 2 4 6 8 10 13 15 17 20 22 24 25 26 26 27 28 30 33 34 32 27 25 29 34 40 43 49 53 62 73 75 85 90 92 97
Wind_Direction_850mb
226 222 218 215 216 215 216 214 211 208 207 207 207 206 206 206 205 207 208 212 214 217 220 226 233 243 253 262 270 277 282 285 284 285 286 288 293 296 297 297 300 301 301
229 224 220 217 217 216 216 214 211 209 208 208 206 206 207 207 208 210 213 214 217 220 225 231 239 249 260 268 275 280 283 285 288 292 294 297 298 298 300 300 300 300 302
228 225 221 218 217 217 216 213 211 210 209 205 206 208 208 209 210 210 214 217 220 225 231 238 248 256 264 273 278 281 284 285 287 291 296 299 299 302 303 303 303 305 305
228 225 222 220 218 218 216 213 213 212 211 209 208 208 209 210 211 213 216 220 223 228 237 245 253 262 269 273 277 281 284 288 290 292 295 299 303 307 307 309 309 309 308
229 225 223 221 218 217 215 213 213 212 211 211 208 206 207 209 213 215 217 221 227 233 240 248 257 265 270 275 281 285 288 292 295 298 302 305 308 310 313 312 308 307 309
231 227 222 220 219 217 214 213 212 210 209 209 208 209 208 209 211 214 219 224 230 237 245 256 262 266 272 279 282 285 290 296 300 301 304 306 310 308 308 308 310 311 309
230 226 223 220 217 215 213 211 210 209 209 208 206 206 207 209 211 215 220 226 233 242 248 253 260 268 276 283 286 289 293 295 300 301 300 303 303 306 312 307 302 301 300
228 226 222 219 216 212 209 208 207 207 207 205 203 203 203 203 209 218 225 228 234 237 243 250 260 271 279 286 290 296 300 301 302 306 305 305 306 301 297 296 299 301 301
224 223 220 216 212 207 205 204 204 202 199 198 197 196 199 202 213 220 221 222 226 230 239 252 267 280 291 296 299 306 306 304 307 302 299 299 300 301 302 301 303 304 305
217 217 215 212 210 205 203 199 196 197 193 189 187 190 194 199 209 215 207 210 216 227 241 258 279 293 298 300 320 312 302 309 308 304 299 296 296 298 300 301 303 304 306
211 210 207 206 206 205 199 196 194 189 186 181 181 180 184 186 177 187 187 197 213 232 257 280 297 298 308 321 308 291 302 304 293 293 296 298 302 305 308 309 307 307 307
199 200 198 198 198 196 196 187 186 184 180 176 177 174 174 174 168 149 172 209 246 275 293 304 304 314 311 305 286 304 310 288 293 298 301 306 311 313 314 313 312 309 305
188 187 188 186 186 186 188 183 178 178 177 173 175 173 172 174 179 195 223 253 281 304 302 302 302 305 306 309 305 304 301 305 306 308 310 312 314 315 314 314 313 313 313
178 174 174 175 172 173 175 174 174 172 172 171 170 169 168 171 185 212 257 294 305 305 299 304 309 309 307 304 303 305 309 312 313 313 313 315 317 317 318 320 323 325 322
173 168 166 167 166 162 162 163 165 163 170 166 162 163 165 167 188 259 307 314 325 299 304 308 307 308 310 313 316 318 319 318 318 319 321 322 321 322 324 327 328 326 324
164 160 158 155 152 149 146 136 138 147 152 157 156 163 166 197 276 296 316 298 302 308 314 315 318 320 322 324 324 324 326 327 327 327 325 324 325 327 329 328 330 330 329
162 157 155 154 151 150 149 147 139 136 148 150 157 174 206 290 299 332 299 321 315 318 321 324 325 325 325 326 326 327 327 328 327 327 326 328 329 328 329 332 333 332 331
162 159 156 152 149 148 148 146 145 148 153 151 153 229 304 309 299 308 315 325 324 324 329 329 329 328 328 327 326 325 325 327 328 327 329 330 330 330 331 333 334 333 334
150 147 147 146 146 146 146 144 143 134 132 150 250 312 316 312 322 325 331 334 336 335 334 335 335 333 331 328 325 324 326 329 330 331 332 331 333 331 334 335 335 337 336
148 148 148 146 144 144 137 129 137 146 152 195 306 323 331 330 332 335 339 339 341 342 341 340 340 340 336 332 330 328 328 331 335 333 330 331 333 335 336 336 337 336 337
147 144 145 141 132 130 140 146 145 141 118 355 338 357 352 351 345 344 346 349 348 346 346 346 345 344 338 336 333 333 334 336 332 329 329 332 335 337 338 338 339 339 338
144 139 131 132 141 144 144 139 129 112 84 51 22 353 343 341 346 351 353 351 350 349 347 347 348 347 344 341 336 334 332 332 330 328 328 332 336 339 339 339 340 339 339
127 128 139 142 138 133 125 115 102 90 81 47 344 336 341 349 352 349 346 348 349 347 345 346 346 343 338 333 328 325 327 329 327 327 328 331 334 337 336 336 337 338 338
137 139 137 133 128 123 117 116 119 125 125 30 354 352 351 346 339 335 341 345 344 343 340 337 334 331 329 325 323 323 325 327 326 327 326 328 331 333 330 330 334 336 336
135 132 129 125 123 124 126 125 114 66 23 8 352 341 331 324 328 338 336 331 329 330 330 327 322 320 321 323 323 326 329 329 326 325 321 319 325 332 333 330 332 334 334
129 126 123 119 117 117 117 110 50 8 354 342 328 318 318 327 330 325 319 321 324 324 323 320 318 319 322 323 325 328 327 324 322 322 324 324 326 330 331 329 330 331 331